Location: Eitze
(52.9840°N, 9.6894°E)
Time: 01:57:13
(UTC+00:00)

IKONOS-2 - Pass Details

Date: 19 May 2025
Orbit: 577 x 584 km, 98.2° (Epoch: 23 June)

Event Time Altitude Azimuth Distance (km) Brightness Sun altitude
Rises 20:21:07 0° 17° (NNE) 2,808 8.4 -7.7°
Reaches altitude 10° 20:23:18 10° 20° (NNE) 1,905 7.5 -7.9°
Maximum altitude 20:27:24 65° 103° (ESE) 641 4.4 -8.3°
Drops below altitude 10° 20:31:29 10° 186° (S) 1,893 6.6 -8.7°
Enters shadow 20:33:18 - 189° (S) 2,645 7.4 -8.8°
